Weather History for KTVR - May, 2013

Change the Weather History Date:

Tuesday, May 21, 2013

  Actual Average Record
Temperature  
Mean Temperature 78 °F 74 °F  
Max Temperature 90 °F 85 °F 94 °F (1962)
Min Temperature 65 °F 63 °F 43 °F (1954)
Degree Days  
Heating Degree Days 0 0  
Month to date heating degree days 52 9  
Since 1 July heating degree days 2332 2350  
Cooling Degree Days 13 9  
Month to date cooling degree days 100 147  
Year to date cooling degree days 222 265  
Growing Degree Days 26 (Base 50)    
Moisture  
Dew Point 70 °F    
Average Humidity 74    
Maximum Humidity 93    
Minimum Humidity 55    
Precipitation  
Precipitation 0.49 in 0.16 in 1.49 in (1966)
Month to date precipitation 4.21 3.55  
Year to date precipitation 34.45 23.89  
Sea Level Pressure  
Sea Level Pressure 29.92 in    
Wind  
Wind Speed 10 mph (South)    
Max Wind Speed 33 mph    
Max Gust Speed 46 mph    
Visibility 9 miles    
Events Rain , Thunderstorm    
T = Trace of Precipitation, MM = Missing Value Source: NWS Daily Summary

Daily Weather History Graph

Daily Weather History Graph

Search for Another Location

Airport or City:

Trip Planner

Search our weather history database for the weather conditions in past years. The results will help you decide how hot, cold, wet, or windy it might be!

Date:

Astronomy

May. 21, 2013 Rise Set
Actual Time 6:02 AM CDT 7:59 PM CDT
Civil Twilight 5:34 AM CDT 8:26 PM CDT
Nautical Twilight 5:01 AM CDT 9:00 PM CDT
Astronomical Twilight 4:26 AM CDT 9:35 PM CDT
Moon 4:24 PM CDT (5/21) 3:17 AM CDT (5/21)
Length of Visible Light 14h 52m
Length of Day
13h 57m
Waxing Gibbous, 84% of the Moon is Illuminated
May 21
Waxing Gibbous
May 24
Full
May 31
Last Quarter
Jun 8
New
Jun 16
First Quarter

Hourly Weather History & Observations

Time (CDT) Temp. Heat Index Dew Point Humidity Pressure Visibility Wind Dir Wind Speed Gust Speed Precip Events Conditions
12:53 AM 77.0 °F - 72.0 °F 84% 29.95 in 10.0 mi SSE 6.9 mph - N/A   Mostly Cloudy
1:16 AM 78.8 °F - 73.4 °F 83% 29.94 in 10.0 mi South 6.9 mph - N/A   Overcast
1:44 AM 77.0 °F - 73.4 °F 89% 29.93 in 10.0 mi South 5.8 mph - N/A   Overcast
1:53 AM 77.0 °F - 73.0 °F 88% 29.95 in 10.0 mi South 8.1 mph - N/A   Overcast
2:53 AM 75.0 °F - 72.0 °F 90% 29.93 in 9.0 mi SSE 5.8 mph - N/A   Clear
3:53 AM 73.0 °F - 72.0 °F 96% 29.93 in 8.0 mi SSE 4.6 mph - N/A   Clear
4:13 AM 73.4 °F - 71.6 °F 94% 29.92 in 7.0 mi South 3.5 mph - N/A   Mostly Cloudy
4:40 AM 73.4 °F - 71.6 °F 94% 29.92 in 9.0 mi SSE 6.9 mph - N/A   Scattered Clouds
4:53 AM 73.9 °F - 72.0 °F 93% 29.94 in 9.0 mi SSE 4.6 mph - N/A   Partly Cloudy
5:40 AM 73.4 °F - 71.6 °F 94% 29.93 in 8.0 mi South 3.5 mph - N/A   Mostly Cloudy
5:53 AM 73.0 °F - 72.0 °F 96% 29.95 in 8.0 mi SSE 5.8 mph - N/A   Mostly Cloudy
6:05 AM 73.4 °F - 71.6 °F 94% 29.93 in 7.0 mi SSE 5.8 mph - N/A   Scattered Clouds
6:53 AM 73.9 °F - 72.0 °F 93% 29.95 in 7.0 mi SSE 5.8 mph - N/A   Clear
7:53 AM 77.0 °F - 73.0 °F 88% 29.95 in 10.0 mi SSE 5.8 mph - N/A   Clear
8:53 AM 80.1 °F 84.2 °F 73.0 °F 79% 29.96 in 10.0 mi South 12.7 mph 19.6 mph N/A   Scattered Clouds
9:05 AM 78.8 °F - 73.4 °F 83% 29.95 in 10.0 mi South 15.0 mph - N/A   Mostly Cloudy
9:53 AM 81.0 °F 85.2 °F 72.0 °F 74% 29.95 in 10.0 mi South 10.4 mph - N/A   Mostly Cloudy
10:53 AM 82.9 °F 88.0 °F 72.0 °F 69% 29.95 in 10.0 mi SSW 8.1 mph 18.4 mph N/A   Scattered Clouds
11:53 AM 86.0 °F 90.7 °F 70.0 °F 59% 29.95 in 10.0 mi South 12.7 mph 18.4 mph N/A   Partly Cloudy
12:53 PM 87.1 °F 92.8 °F 71.1 °F 59% 29.93 in 10.0 mi South 8.1 mph - N/A   Clear
1:53 PM 88.0 °F 92.9 °F 70.0 °F 55% 29.91 in 10.0 mi South 15.0 mph 21.9 mph N/A   Partly Cloudy
2:53 PM 88.0 °F 92.9 °F 70.0 °F 55% 29.88 in 10.0 mi South 13.8 mph 20.7 mph N/A   Partly Cloudy
3:53 PM 88.0 °F 92.9 °F 70.0 °F 55% 29.85 in 10.0 mi South 15.0 mph - N/A   Mostly Cloudy
4:53 PM 88.0 °F 92.9 °F 70.0 °F 55% 29.80 in 10.0 mi South 17.3 mph 26.5 mph N/A   Clear
5:53 PM 87.1 °F 92.8 °F 71.1 °F 59% 29.79 in 10.0 mi South 15.0 mph - N/A   Partly Cloudy
6:53 PM 84.9 °F 90.1 °F 71.1 °F 63% 29.80 in 10.0 mi South 13.8 mph 20.7 mph N/A   Clear
7:53 PM 82.0 °F 86.7 °F 72.0 °F 71% 29.81 in 10.0 mi South 5.8 mph - N/A   Clear
8:53 PM 79.0 °F - 72.0 °F 79% 29.83 in 10.0 mi South 3.5 mph - N/A   Clear
9:53 PM 75.0 °F - 71.1 °F 87% 29.88 in 10.0 mi Calm Calm - N/A   Clear
10:46 PM 68.0 °F - 62.6 °F 83% 29.94 in 5.0 mi NW 23.0 mph 46.0 mph 0.00 in Rain , Thunderstorm Rain
10:53 PM 66.0 °F - 63.0 °F 90% 29.98 in 4.0 mi NNW 20.7 mph 46.0 mph 0.02 in Rain , Thunderstorm Light Rain
11:00 PM 64.4 °F - 62.6 °F 94% 29.95 in 2.5 mi NNW 17.3 mph 32.2 mph 0.06 in Rain , Thunderstorm Heavy Thunderstorms and Rain
11:26 PM 64.4 °F - 62.6 °F 94% 29.96 in 4.0 mi North 15.0 mph 28.8 mph 0.30 in Rain , Thunderstorm Heavy Rain
11:53 PM 64.9 °F - 63.0 °F 93% 29.97 in 9.0 mi NNE 16.1 mph 23.0 mph 0.36 in Rain Light Rain